Time,TemperatureF,DewpointF,PressureIn,WindDirection,WindDirectionDegrees,WindSpeedMPH,WindSpeedGustMPH,Humidity,HourlyPrecipIn,Conditions,Clouds,dailyrainin,SoftwareType,DateUTC
2013-02-16 00:02:00,37.0,23.0,30.05,West,276,0.0,3.0,57,0.00,,,0.00,,2013-02-16 06:02:00,
2013-02-16 00:11:00,37.0,23.0,30.05,West,276,0.0,3.0,57,0.00,,,0.00,,2013-02-16 06:11:00,
2013-02-16 00:21:00,37.0,23.0,30.06,WNW,288,2.0,4.0,56,0.00,,,0.00,,2013-02-16 06:21:00,
2013-02-16 00:32:00,38.0,23.0,30.06,WNW,290,2.0,5.0,55,0.00,,,0.00,,2013-02-16 06:32:00,
2013-02-16 00:42:00,38.0,23.0,30.06,WNW,290,2.0,5.0,55,0.00,,,0.00,,2013-02-16 06:42:00,
2013-02-16 00:51:00,37.0,22.0,30.06,WNW,294,1.0,4.0,55,0.00,,,0.00,,2013-02-16 06:51:00,
2013-02-16 01:02:00,37.0,23.0,30.06,West,275,1.0,3.0,56,0.00,,,0.00,,2013-02-16 07:02:00,
2013-02-16 01:11:00,37.0,23.0,30.06,West,275,1.0,3.0,56,0.00,,,0.00,,2013-02-16 07:11:00,
2013-02-16 01:21:00,36.0,23.0,30.06,WNW,289,0.0,3.0,58,0.00,,,0.00,,2013-02-16 07:21:00,
2013-02-16 01:31:00,36.0,23.0,30.06,WNW,289,0.0,3.0,58,0.00,,,0.00,,2013-02-16 07:31:00,
2013-02-16 01:42:00,36.0,23.0,30.06,WNW,289,0.0,3.0,58,0.00,,,0.00,,2013-02-16 07:42:00,
2013-02-16 01:52:00,36.0,23.0,30.06,West,262,0.0,3.0,58,0.00,,,0.00,,2013-02-16 07:52:00,
2013-02-16 02:01:00,36.0,23.0,30.07,West,281,1.0,3.0,59,0.00,,,0.00,,2013-02-16 08:01:00,
2013-02-16 02:11:00,36.0,23.0,30.07,West,281,1.0,3.0,59,0.00,,,0.00,,2013-02-16 08:11:00,
2013-02-16 02:21:00,35.0,23.0,30.06,West,277,0.0,2.0,62,0.00,,,0.00,,2013-02-16 08:21:00,
2013-02-16 02:31:00,34.0,23.0,30.05,West,277,0.0,1.0,64,0.00,,,0.00,,2013-02-16 08:31:00,
2013-02-16 02:42:00,34.0,23.0,30.05,West,277,0.0,1.0,64,0.00,,,0.00,,2013-02-16 08:42:00,
2013-02-16 02:52:00,34.0,24.0,30.05,West,277,0.0,2.0,67,0.00,,,0.00,,2013-02-16 08:52:00,
2013-02-16 03:01:00,33.0,24.0,30.04,West,277,0.0,0.0,68,0.00,,,0.00,,2013-02-16 09:01:00,
2013-02-16 03:11:00,33.0,24.0,30.04,West,277,0.0,0.0,68,0.00,,,0.00,,2013-02-16 09:11:00,
2013-02-16 03:21:00,33.0,24.0,30.04,West,268,0.0,2.0,69,0.00,,,0.00,,2013-02-16 09:21:00,
2013-02-16 03:31:00,33.0,24.0,30.03,West,276,0.0,2.0,69,0.00,,,0.00,,2013-02-16 09:31:00,
2013-02-16 03:42:00,33.0,24.0,30.03,West,276,0.0,2.0,69,0.00,,,0.00,,2013-02-16 09:42:00,
2013-02-16 03:52:00,32.0,24.0,30.04,West,271,0.0,2.0,71,0.00,,,0.00,,2013-02-16 09:52:00,
2013-02-16 04:01:00,32.0,24.0,30.04,West,271,0.0,3.0,71,0.00,,,0.00,,2013-02-16 10:01:00,
2013-02-16 04:11:00,32.0,24.0,30.04,West,271,0.0,3.0,71,0.00,,,0.00,,2013-02-16 10:11:00,
2013-02-16 04:21:00,32.0,24.0,30.04,West,271,0.0,1.0,71,0.00,,,0.00,,2013-02-16 10:21:00,
2013-02-16 04:31:00,33.0,25.0,30.05,NW,315,0.0,2.0,71,0.00,,,0.00,,2013-02-16 10:31:00,
2013-02-16 04:42:00,33.0,25.0,30.05,NW,315,0.0,2.0,71,0.00,,,0.00,,2013-02-16 10:42:00,
2013-02-16 04:52:00,33.0,24.0,30.05,WNW,302,0.0,2.0,70,0.00,,,0.00,,2013-02-16 10:52:00,
2013-02-16 05:02:00,32.0,23.0,30.06,WNW,298,0.0,3.0,70,0.00,,,0.00,,2013-02-16 11:02:00,
2013-02-16 05:11:00,32.0,23.0,30.06,WNW,298,0.0,3.0,70,0.00,,,0.00,,2013-02-16 11:11:00,
2013-02-16 05:22:00,32.0,23.0,30.06,WNW,298,0.0,3.0,70,0.00,,,0.00,,2013-02-16 11:22:00,
2013-02-16 05:32:00,32.0,24.0,30.06,WNW,284,0.0,3.0,72,0.00,,,0.00,,2013-02-16 11:32:00,
2013-02-16 05:42:00,32.0,24.0,30.06,WNW,284,0.0,3.0,72,0.00,,,0.00,,2013-02-16 11:42:00,
2013-02-16 05:52:00,31.0,24.0,30.06,WNW,284,0.0,1.0,75,0.00,,,0.00,,2013-02-16 11:52:00,
2013-02-16 06:01:00,30.0,24.0,30.06,WNW,284,0.0,0.0,78,0.00,,,0.00,,2013-02-16 12:01:00,
2013-02-16 06:12:00,30.0,24.0,30.06,WNW,284,0.0,0.0,78,0.00,,,0.00,,2013-02-16 12:12:00,
2013-02-16 06:22:00,30.0,24.0,30.06,WNW,284,0.0,0.0,79,0.00,,,0.00,,2013-02-16 12:22:00,
2013-02-16 06:32:00,29.0,23.0,30.06,WNW,284,0.0,0.0,79,0.00,,,0.00,,2013-02-16 12:32:00,
2013-02-16 06:42:00,29.0,23.0,30.06,WNW,284,0.0,0.0,79,0.00,,,0.00,,2013-02-16 12:42:00,
2013-02-16 06:52:00,29.0,23.0,30.06,WNW,284,0.0,0.0,79,0.00,,,0.00,,2013-02-16 12:52:00,
2013-02-16 07:02:00,29.0,24.0,30.06,WNW,284,0.0,0.0,80,0.00,,,0.00,,2013-02-16 13:02:00,
2013-02-16 07:11:00,29.0,24.0,30.06,WNW,284,0.0,0.0,80,0.00,,,0.00,,2013-02-16 13:11:00,
2013-02-16 07:21:00,29.0,24.0,30.08,WNW,284,0.0,0.0,80,0.00,,,0.00,,2013-02-16 13:21:00,
2013-02-16 07:31:00,30.0,24.0,30.08,WNW,284,0.0,2.0,79,0.00,,,0.00,,2013-02-16 13:31:00,
2013-02-16 07:41:00,30.0,24.0,30.08,WNW,284,0.0,2.0,79,0.00,,,0.00,,2013-02-16 13:41:00,
2013-02-16 07:52:00,31.0,25.0,30.08,WNW,284,0.0,1.0,77,0.00,,,0.00,,2013-02-16 13:52:00,
2013-02-16 08:01:00,32.0,25.0,30.08,WNW,284,0.0,2.0,75,0.00,,,0.00,,2013-02-16 14:01:00,
2013-02-16 08:11:00,32.0,25.0,30.08,WNW,284,0.0,2.0,75,0.00,,,0.00,,2013-02-16 14:11:00,
2013-02-16 08:21:00,34.0,25.0,30.08,WNW,284,0.0,2.0,70,0.00,,,0.00,,2013-02-16 14:21:00,
2013-02-16 08:32:00,36.0,25.0,30.08,WNW,284,0.0,2.0,63,0.00,,,0.00,,2013-02-16 14:32:00,
2013-02-16 08:41:00,36.0,25.0,30.08,WNW,284,0.0,2.0,63,0.00,,,0.00,,2013-02-16 14:41:00,
2013-02-16 08:52:00,37.0,23.0,30.08,NNW,332,0.0,3.0,56,0.00,,,0.00,,2013-02-16 14:52:00,
2013-02-16 09:01:00,38.0,24.0,30.08,NNW,328,0.0,3.0,57,0.00,,,0.00,,2013-02-16 15:01:00,
2013-02-16 09:11:00,38.0,24.0,30.08,NNW,328,0.0,3.0,57,0.00,,,0.00,,2013-02-16 15:11:00,
2013-02-16 09:21:00,39.0,24.0,30.09,WNW,282,1.0,4.0,54,0.00,,,0.00,,2013-02-16 15:21:00,
2013-02-16 09:32:00,40.0,25.0,30.08,West,261,1.0,4.0,54,0.00,,,0.00,,2013-02-16 15:32:00,
2013-02-16 09:42:00,40.0,25.0,30.08,West,261,1.0,4.0,54,0.00,,,0.00,,2013-02-16 15:42:00,
2013-02-16 09:52:00,41.0,25.0,30.08,NW,314,0.0,5.0,53,0.00,,,0.00,,2013-02-16 15:52:00,
2013-02-16 10:01:00,41.0,24.0,30.09,NNW,340,0.0,4.0,51,0.00,,,0.00,,2013-02-16 16:01:00,
2013-02-16 10:11:00,41.0,24.0,30.09,NNW,340,0.0,4.0,51,0.00,,,0.00,,2013-02-16 16:11:00,
2013-02-16 10:21:00,43.0,26.0,30.09,NNE,17,2.0,6.0,51,0.00,,,0.00,,2013-02-16 16:21:00,
2013-02-16 10:32:00,43.0,25.0,30.08,ESE,115,0.0,4.0,49,0.00,,,0.00,,2013-02-16 16:32:00,
2013-02-16 10:41:00,43.0,25.0,30.08,ESE,115,0.0,4.0,49,0.00,,,0.00,,2013-02-16 16:41:00,
2013-02-16 10:52:00,44.0,25.0,30.08,NW,322,1.0,5.0,47,0.00,,,0.00,,2013-02-16 16:52:00,
2013-02-16 11:01:00,44.0,25.0,30.08,NE,34,0.0,4.0,46,0.00,,,0.00,,2013-02-16 17:01:00,
2013-02-16 11:11:00,44.0,25.0,30.08,NE,34,0.0,4.0,46,0.00,,,0.00,,2013-02-16 17:11:00,
2013-02-16 11:22:00,45.0,26.0,30.08,NE,36,2.0,6.0,47,0.00,,,0.00,,2013-02-16 17:22:00,
2013-02-16 11:32:00,46.0,26.0,30.08,North,11,1.0,7.0,45,0.00,,,0.00,,2013-02-16 17:32:00,
2013-02-16 11:42:00,46.0,26.0,30.08,North,11,1.0,7.0,45,0.00,,,0.00,,2013-02-16 17:42:00,
2013-02-16 11:52:00,47.0,27.0,30.07,West,269,2.0,7.0,45,0.00,,,0.00,,2013-02-16 17:52:00,
2013-02-16 12:02:00,48.0,28.0,30.06,NNW,342,1.0,5.0,45,0.00,,,0.00,,2013-02-16 18:02:00,
2013-02-16 12:11:00,49.0,29.0,30.06,NE,36,2.0,6.0,45,0.00,,,0.00,,2013-02-16 18:11:00,
2013-02-16 12:21:00,49.0,29.0,30.06,NE,36,2.0,6.0,45,0.00,,,0.00,,2013-02-16 18:21:00,
2013-02-16 12:33:00,50.0,29.0,30.05,SE,130,3.0,5.0,45,0.00,,,0.00,,2013-02-16 18:33:00,
2013-02-16 12:42:00,50.0,29.0,30.05,SE,130,3.0,5.0,45,0.00,,,0.00,,2013-02-16 18:42:00,
2013-02-16 12:52:00,49.0,27.0,30.04,NNE,28,1.0,6.0,43,0.00,,,0.00,,2013-02-16 18:52:00,
2013-02-16 13:02:00,50.0,28.0,30.03,NNW,329,0.0,5.0,42,0.00,,,0.00,,2013-02-16 19:02:00,
2013-02-16 13:11:00,50.0,28.0,30.03,NNW,329,0.0,5.0,42,0.00,,,0.00,,2013-02-16 19:11:00,
2013-02-16 13:21:00,52.0,27.0,30.03,WSW,253,2.0,5.0,38,0.00,,,0.00,,2013-02-16 19:21:00,
2013-02-16 13:31:00,52.0,27.0,30.01,NNW,331,0.0,7.0,37,0.00,,,0.00,,2013-02-16 19:31:00,
2013-02-16 13:42:00,52.0,27.0,30.01,NNW,331,0.0,7.0,37,0.00,,,0.00,,2013-02-16 19:42:00,
2013-02-16 13:52:00,52.0,28.0,29.99,West,268,1.0,4.0,39,0.00,,,0.00,,2013-02-16 19:52:00,
2013-02-16 14:01:00,54.0,27.0,29.98,WSW,258,0.0,8.0,35,0.00,,,0.00,,2013-02-16 20:01:00,
2013-02-16 14:11:00,55.0,26.0,29.97,West,267,2.0,7.0,33,0.00,,,0.00,,2013-02-16 20:11:00,
2013-02-16 14:21:00,55.0,26.0,29.97,West,267,2.0,7.0,33,0.00,,,0.00,,2013-02-16 20:21:00,
2013-02-16 14:32:00,55.0,27.0,29.96,SSW,192,1.0,5.0,34,0.00,,,0.00,,2013-02-16 20:32:00,
2013-02-16 14:42:00,55.0,27.0,29.96,SSW,192,1.0,5.0,34,0.00,,,0.00,,2013-02-16 20:42:00,
2013-02-16 14:52:00,55.0,27.0,29.95,WNW,292,1.0,4.0,34,0.00,,,0.00,,2013-02-16 20:52:00,
2013-02-16 15:02:00,54.0,26.0,29.95,SW,234,0.0,3.0,33,0.00,,,0.00,,2013-02-16 21:02:00,
2013-02-16 15:11:00,54.0,26.0,29.95,SW,234,0.0,3.0,33,0.00,,,0.00,,2013-02-16 21:11:00,
2013-02-16 15:21:00,55.0,25.0,29.94,South,191,2.0,5.0,31,0.00,,,0.00,,2013-02-16 21:21:00,
2013-02-16 15:31:00,55.0,27.0,29.93,NNE,24,2.0,4.0,34,0.00,,,0.00,,2013-02-16 21:31:00,
2013-02-16 15:41:00,55.0,27.0,29.93,NNE,24,2.0,4.0,34,0.00,,,0.00,,2013-02-16 21:41:00,
2013-02-16 15:52:00,56.0,27.0,29.93,SSW,211,0.0,3.0,32,0.00,,,0.00,,2013-02-16 21:52:00,
2013-02-16 16:01:00,56.0,27.0,29.92,WSW,240,3.0,7.0,32,0.00,,,0.00,,2013-02-16 22:01:00,
2013-02-16 16:11:00,56.0,27.0,29.92,WSW,240,3.0,7.0,32,0.00,,,0.00,,2013-02-16 22:11:00,
2013-02-16 16:21:00,57.0,27.0,29.92,SW,216,2.0,6.0,32,0.00,,,0.00,,2013-02-16 22:21:00,
2013-02-16 16:32:00,56.0,27.0,29.91,SW,219,2.0,6.0,32,0.00,,,0.00,,2013-02-16 22:32:00,
2013-02-16 16:42:00,56.0,27.0,29.91,SW,219,2.0,6.0,32,0.00,,,0.00,,2013-02-16 22:42:00,
2013-02-16 16:52:00,55.0,26.0,29.91,SE,134,0.0,6.0,33,0.00,,,0.00,,2013-02-16 22:52:00,
2013-02-16 17:02:00,56.0,27.0,29.90,South,179,1.0,7.0,33,0.00,,,0.00,,2013-02-16 23:02:00,
2013-02-16 17:11:00,56.0,27.0,29.90,South,179,1.0,7.0,33,0.00,,,0.00,,2013-02-16 23:11:00,
2013-02-16 17:21:00,55.0,26.0,29.89,South,183,0.0,4.0,32,0.00,,,0.00,,2013-02-16 23:21:00,
2013-02-16 17:31:00,55.0,27.0,29.89,SSE,167,4.0,7.0,34,0.00,,,0.00,,2013-02-16 23:31:00,
2013-02-16 17:42:00,55.0,27.0,29.89,SSE,167,4.0,7.0,34,0.00,,,0.00,,2013-02-16 23:42:00,
2013-02-16 17:52:00,55.0,28.0,29.88,ESE,117,2.0,7.0,35,0.00,,,0.00,,2013-02-16 23:52:00,
2013-02-16 18:02:00,54.0,27.0,29.88,East,92,1.0,6.0,35,0.00,,,0.00,,2013-02-17 00:02:00,
2013-02-16 18:12:00,54.0,27.0,29.88,East,92,1.0,6.0,35,0.00,,,0.00,,2013-02-17 00:12:00,
2013-02-16 18:22:00,53.0,27.0,29.88,ESE,121,1.0,6.0,37,0.00,,,0.00,,2013-02-17 00:22:00,
2013-02-16 18:32:00,52.0,27.0,29.87,ESE,117,0.0,4.0,38,0.00,,,0.00,,2013-02-17 00:32:00,
2013-02-16 18:41:00,52.0,27.0,29.87,ESE,117,0.0,4.0,38,0.00,,,0.00,,2013-02-17 00:41:00,
2013-02-16 18:52:00,51.0,28.0,29.87,ESE,110,1.0,3.0,40,0.00,,,0.00,,2013-02-17 00:52:00,
2013-02-16 19:01:00,50.0,28.0,29.87,ESE,113,1.0,3.0,42,0.00,,,0.00,,2013-02-17 01:01:00,
2013-02-16 19:11:00,50.0,28.0,29.87,ESE,113,1.0,3.0,42,0.00,,,0.00,,2013-02-17 01:11:00,
2013-02-16 19:21:00,50.0,29.0,29.87,SE,125,1.0,2.0,44,0.00,,,0.00,,2013-02-17 01:21:00,
2013-02-16 19:31:00,49.0,29.0,29.86,ESE,120,1.0,3.0,46,0.00,,,0.00,,2013-02-17 01:31:00,
2013-02-16 19:41:00,49.0,29.0,29.86,ESE,120,1.0,3.0,46,0.00,,,0.00,,2013-02-17 01:41:00,
2013-02-16 19:52:00,48.0,29.0,29.86,SE,126,0.0,2.0,47,0.00,,,0.00,,2013-02-17 01:52:00,
2013-02-16 20:01:00,48.0,29.0,29.86,SE,127,0.0,1.0,48,0.00,,,0.00,,2013-02-17 02:01:00,
2013-02-16 20:11:00,48.0,29.0,29.86,SE,127,0.0,1.0,48,0.00,,,0.00,,2013-02-17 02:11:00,
2013-02-16 20:21:00,47.0,29.0,29.86,SE,133,0.0,3.0,49,0.00,,,0.00,,2013-02-17 02:21:00,
2013-02-16 20:31:00,47.0,29.0,29.86,ESE,116,0.0,2.0,50,0.00,,,0.00,,2013-02-17 02:31:00,
2013-02-16 20:41:00,47.0,29.0,29.86,ESE,116,0.0,2.0,50,0.00,,,0.00,,2013-02-17 02:41:00,
2013-02-16 20:52:00,46.0,28.0,29.86,SE,142,0.0,3.0,50,0.00,,,0.00,,2013-02-17 02:52:00,
2013-02-16 21:02:00,46.0,28.0,29.86,SE,128,2.0,5.0,50,0.00,,,0.00,,2013-02-17 03:02:00,
2013-02-16 21:11:00,46.0,28.0,29.86,SE,128,2.0,5.0,50,0.00,,,0.00,,2013-02-17 03:11:00,
2013-02-16 21:21:00,46.0,29.0,29.86,SE,128,1.0,4.0,51,0.00,,,0.00,,2013-02-17 03:21:00,
2013-02-16 21:31:00,45.0,28.0,29.86,SE,140,2.0,5.0,52,0.00,,,0.00,,2013-02-17 03:31:00,
2013-02-16 21:42:00,45.0,28.0,29.86,SE,140,2.0,5.0,52,0.00,,,0.00,,2013-02-17 03:42:00,
2013-02-16 21:52:00,45.0,28.0,29.86,SE,144,1.0,6.0,52,0.00,,,0.00,,2013-02-17 03:52:00,
2013-02-16 22:01:00,45.0,28.0,29.87,SE,137,1.0,7.0,52,0.00,,,0.00,,2013-02-17 04:01:00,
2013-02-16 22:11:00,45.0,28.0,29.87,SE,137,1.0,7.0,52,0.00,,,0.00,,2013-02-17 04:11:00,
2013-02-16 22:21:00,45.0,29.0,29.86,SE,135,1.0,5.0,54,0.00,,,0.00,,2013-02-17 04:21:00,
2013-02-16 22:31:00,44.0,29.0,29.86,SE,136,1.0,4.0,55,0.00,,,0.00,,2013-02-17 04:31:00,
2013-02-16 22:41:00,44.0,29.0,29.86,SE,136,1.0,4.0,55,0.00,,,0.00,,2013-02-17 04:41:00,
2013-02-16 22:52:00,44.0,30.0,29.85,South,176,2.0,6.0,57,0.00,,,0.00,,2013-02-17 04:52:00,
2013-02-16 23:02:00,43.0,29.0,29.85,SE,142,0.0,4.0,58,0.00,,,0.00,,2013-02-17 05:02:00,
2013-02-16 23:12:00,43.0,29.0,29.85,SE,142,0.0,4.0,58,0.00,,,0.00,,2013-02-17 05:12:00,
2013-02-16 23:22:00,43.0,29.0,29.85,SE,142,0.0,4.0,58,0.00,,,0.00,,2013-02-17 05:22:00,
2013-02-16 23:33:00,42.0,29.0,29.85,SE,124,1.0,3.0,60,0.00,,,0.00,,2013-02-17 05:33:00,
2013-02-16 23:42:00,42.0,29.0,29.85,SE,124,1.0,3.0,60,0.00,,,0.00,,2013-02-17 05:42:00,
2013-02-16 23:52:00,42.0,30.0,29.85,ESE,114,0.0,3.0,61,0.00,,,0.00,,2013-02-17 05:52:00,